CW5834 Weather Reports


time (UTC)temp
F
wind
direction
speed
knots
gust
knots
rain 1hr
in
rain 24hr
in
rain mn
in
humidity
%
barometer
mb
20260906183017 89 45 1.7 3.5 0.00 0.15 0.02 62 1014.2
20260906182017 88 180 1.7 3.5 0.00 0.15 0.02 64 1014.4
20260906181017 88 0 1.7 4.3 0.00 0.15 0.02 62 1014.4
20260906180017 88 225 0.9 2.6 0.00 0.15 0.02 64 1014.6
20260906175017 88 203 1.7 2.6 0.00 0.15 0.02 62 1014.7
20260906174037 88 315 2.6 6.1 0.00 0.15 0.02 63 1014.9
20260906173017 87 315 2.6 6.1 0.00 0.15 0.02 63 1014.9
20260906172017 86 293 1.7 4.3 0.00 0.15 0.02 65 1014.9
20260906171017 86 338 1.7 6.1 0.00 0.15 0.02 65 1015.1
20260906170017 86 270 1.7 3.5 0.00 0.15 0.02 67 1015.2
20260906165017 85 0.0 1.7 0.00 0.15 0.02 71 1015.4
20260906164017 84 0 2.6 5.2 0.00 0.15 0.02 69 1015.5
20260906163057 84 293 1.7 7.0 0.00 0.15 0.02 70 1015.6
20260906162017 84 293 0.9 3.5 0.00 0.15 0.02 71 1015.7
20260906161017 84 315 0.9 2.6 0.00 0.15 0.02 72 1015.8
20260906160017 83 0 1.7 5.2 0.00 0.15 0.02 73 1015.9
20260906155057 84 338 1.7 3.5 0.00 0.15 0.02 72 1015.9
20260906154017 84 90 0.9 2.6 0.00 0.15 0.02 72 1015.8
20260906153037 83 0 1.7 3.5 0.00 0.15 0.02 76 1015.8
20260906152039 83 315 1.7 3.5 0.00 0.15 0.02 73 1015.7
20260906151017 82 338 1.7 4.3 0.00 0.15 0.02 74 1015.6
20260906150017 82 293 0.9 3.5 0.00 0.15 0.02 76 1015.6
20260906145017 81 0 0.9 1.7 0.00 0.15 0.02 79 1015.7
20260906144016 80 0 1.7 3.5 0.00 0.15 0.02 80 1015.7
20260906143016 80 315 0.9 3.5 0.00 0.15 0.02 83 1015.9
20260906142017 79 203 1.7 4.3 0.00 0.15 0.02 86 1015.8
20260906141017 78 225 0.9 2.6 0.00 0.15 0.02 88 1015.6
20260906140056 77 225 1.7 2.6 0.00 0.15 0.02 91 1015.8
20260906135016 76 203 0.9 2.6 0.00 0.15 0.02 94 1015.7
20260906134016 75 225 0.9 1.7 0.00 0.15 0.02 96 1015.8
20260906133016 74 225 0.9 1.7 0.00 0.15 0.02 96 1015.9
20260906132016 73 203 1.7 3.5 0.00 0.15 0.02 96 1015.9
20260906131016 73 180 0.9 2.6 0.00 0.15 0.02 96 1015.8
20260906130036 72 203 0.9 3.5 0.01 0.15 0.02 96 1015.7
20260906125016 72 225 1.7 3.5 0.01 0.15 0.02 97 1015.7
20260906124016 71 0.0 1.7 0.01 0.15 0.02 96 1015.4
20260906123016 71 180 0.9 1.7 0.01 0.15 0.02 97 1015.4
20260906122016 70 0.0 0.9 0.01 0.15 0.02 96 1015.0
20260906121036 69 0.0 0.0 0.01 0.15 0.02 96 1014.8
20260906120117 69 0.0 0.0 0.00 0.14 0.01 96 1014.7
20260906115017 69 203 0.9 0.9 0.00 0.14 0.01 96 1014.5
20260906114016 69 0.0 0.9 0.00 0.14 0.01 96 1014.4
20260906113016 69 0.0 1.7 0.00 0.14 0.01 96 1014.5
20260906112016 69 0.0 0.0 0.00 0.14 0.01 96 1014.4
20260906111036 69 0.0 0.9 0.00 0.14 0.01 96 1014.5
20260906110036 69 0.0 1.7 0.00 0.14 0.01 96 1014.5
20260906105016 69 0.0 0.9 0.00 0.14 0.01 96 1014.5
20260906104016 69 0.0 1.7 0.00 0.14 0.01 96 1014.5
20260906103016 69 0.0 1.7 0.00 0.14 0.01 96 1014.6
20260906102016 69 0.0 0.0 0.00 0.14 0.01 96 1014.5
20260906101017 69 0.0 0.9 0.00 0.14 0.01 96 1014.4
20260906100036 69 0.0 0.0 0.00 0.14 0.01 96 1014.4
20260906095016 69 0.0 0.0 0.00 0.14 0.01 96 1014.5
20260906094016 69 0.0 1.7 0.00 0.14 0.01 95 1014.5
20260906093016 70 0.0 1.7 0.00 0.14 0.01 96 1014.5
20260906092016 69 315 0.9 0.9 0.00 0.14 0.01 96 1014.5
20260906091016 69 180 0.9 0.9 0.00 0.14 0.01 96 1014.5
20260906090016 69 0.0 0.9 0.00 0.14 0.01 96 1014.6
20260906085016 69 0.0 0.0 0.00 0.14 0.01 96 1014.5
20260906084016 69 0.0 0.0 0.00 0.14 0.01 96 1014.6
20260906083021 70 0.0 1.7 0.00 0.14 0.01 95 1014.5
20260906082016 70 0.0 0.0 0.00 0.14 0.01 96 1014.4
20260906081016 70 0.0 0.0 0.00 0.14 0.01 95 1014.3
20260906080016 70 0.0 1.7 0.00 0.14 0.01 96 1014.2
20260906075036 70 0.0 0.0 0.00 0.14 0.01 96 1014.1
20260906074036 70 0.0 0.0 0.00 0.14 0.01 96 1014.1
20260906073016 70 0.0 0.0 0.00 0.14 0.01 95 1014.0
20260906072016 70 0.0 1.7 0.00 0.14 0.01 96 1014.2
20260906071016 70 0.0 0.0 0.01 0.14 0.01 95 1014.3
20260906070036 70 0.0 1.7 0.01 0.14 0.01 95 1014.4
20260906065016 70 0.0 0.9 0.01 0.14 0.01 95 1014.5
20260906064037 71 0.0 0.0 0.01 0.14 0.01 95 1014.5
20260906063015 71 0.0 1.7 0.01 0.14 0.01 95 1014.7
20260906062016 71 0.0 1.7 0.01 0.14 0.01 96 1014.8
20260906061016 71 0.0 0.9 0.00 0.13 0.00 95 1014.9
20260906060035 71 0.0 0.0 0.00 0.13 0.00 95 1015.1
20260906055016 71 0.0 1.7 0.00 0.13 0.00 96 1014.9
20260906054015 71 0.0 1.7 0.00 0.13 0.00 95 1015.0
20260906053035 71 0.0 0.0 0.00 0.13 0.00 95 1014.9
20260906052017 71 0.0 1.7 0.00 0.13 0.00 95 1014.7
20260906051017 71 0.0 1.7 0.00 0.13 0.00 95 1014.7
20260906050018 71 0.0 1.7 0.00 0.13 0.00 95 1014.8
20260906045015 71 0.0 0.9 0.00 0.13 0.00 95 1015.1
20260906044038 71 0.0 1.7 0.00 0.13 0.00 95 1015.0
20260906043017 71 0.0 0.0 0.00 0.13 0.00 95 1014.8
20260906042037 71 0.0 1.7 0.00 0.13 0.00 95 1014.9
20260906041017 71 0.0 1.7 0.00 0.13 0.00 95 1014.9
20260906040017 71 0.0 0.0 0.00 0.13 0.13 95 1015.0
20260906035016 71 0.0 0.0 0.00 0.13 0.13 95 1015.1
20260906034016 71 0.0 1.7 0.00 0.13 0.13 95 1015.2
20260906033016 71 0.0 1.7 0.00 0.13 0.13 95 1015.3
20260906032016 71 0.0 1.7 0.00 0.13 0.13 95 1015.3
20260906031016 71 0.0 1.7 0.00 0.13 0.13 95 1015.3
20260906030016 71 0.0 0.9 0.00 0.13 0.13 95 1015.1
20260906025016 71 0.0 0.9 0.00 0.13 0.13 95 1015.1
20260906024016 71 315 0.9 0.9 0.00 0.13 0.13 94 1015.1
20260906023016 72 0.0 1.7 0.00 0.13 0.13 95 1014.8
20260906022016 72 0.0 1.7 0.00 0.13 0.13 95 1014.8
20260906021016 71 0.0 0.9 0.00 0.13 0.13 94 1014.8
20260906020016 71 0.0 1.7 0.00 0.13 0.13 94 1014.3
20260906015036 71 293 0.9 1.7 0.00 0.13 0.13 94 1014.4
20260906014027 71 0.0 1.7 0.00 0.13 0.13 94 1014.5
20260906013016 72 0.0 0.0 0.00 0.13 0.13 93 1014.1
20260906012016 72 293 0.9 0.9 0.00 0.13 0.13 93 1013.9
20260906011016 72 0.0 0.0 0.00 0.13 0.13 93 1014.0
20260906010016 72 0.0 1.7 0.00 0.13 0.13 93 1013.8
20260906005016 72 0.0 0.0 0.00 0.13 0.13 93 1013.7
20260906004016 72 0.0 1.7 0.00 0.13 0.13 93 1013.6
20260906003016 72 0 0.9 0.9 0.00 0.13 0.13 92 1013.4
20260906002036 73 0.0 0.0 0.00 0.13 0.13 92 1013.1
20260906001016 73 0.0 0.9 0.00 0.13 0.13 92 1013.5
20260906000015 73 0.0 0.9 0.00 0.13 0.13 92 1013.5
20260905235016 74 0 0.9 1.7 0.00 0.13 0.13 91 1013.3
20260905234016 74 90 0.9 1.7 0.01 0.13 0.13 90 1013.4
20260905233035 75 0.0 1.7 0.10 0.13 0.13 89 1013.2
20260905232015 75 270 0.9 5.2 0.10 0.13 0.13 89 1013.4
20260905231016 75 225 0.9 2.6 0.10 0.13 0.13 91 1013.3
20260905230016 75 315 0.9 3.5 0.13 0.13 0.13 88 1013.3
20260905225015 76 338 0.9 2.6 0.13 0.13 0.13 82 1013.3
20260905224016 79 0 5.2 13.0 0.12 0.12 0.12 71 1013.7
20260905223015 82 270 0.9 1.7 0.03 0.03 0.03 83 1013.8
20260905222015 82 0.0 1.7 0.03 0.03 0.03 84 1013.5
20260905221018 82 315 0.9 2.6 0.03 0.03 0.03 81 1013.6
20260905220015 84 293 1.7 4.3 0.00 0.00 0.00 74 1013.9
20260905215056 86 0.0 1.7 0.00 0.00 0.00 70 1013.6
20260905214015 87 0.0 1.7 0.00 0.00 0.00 68 1013.8
20260905213017 88 158 0.9 1.7 0.00 0.00 0.00 65 1014.0
20260905212017 89 0.0 1.7 0.00 0.00 0.00 63 1013.9
20260905211017 90 158 1.7 3.5 0.00 0.00 0.00 63 1014.0
20260905210017 90 135 1.7 4.3 0.00 0.00 0.00 63 1014.1
20260905205017 90 203 1.7 4.3 0.00 0.00 0.00 63 1014.0
20260905204017 89 158 0.9 3.5 0.00 0.00 0.00 64 1014.0
20260905203017 90 135 1.7 2.6 0.00 0.00 0.00 62 1014.1
20260905202018 90 135 0.9 2.6 0.00 0.00 0.00 62 1014.3
20260905201017 89 135 0.9 4.3 0.00 0.00 0.00 64 1014.3
20260905200017 89 158 1.7 5.2 0.00 0.00 0.00 64 1014.7
20260905195017 89 135 2.6 5.2 0.00 0.00 0.00 64 1015.0
20260905194015 89 135 2.6 6.1 0.00 0.00 0.00 64 1015.0
20260905193037 89 135 1.7 4.3 0.00 0.00 0.00 64 1015.2
20260905192017 89 203 1.7 4.3 0.00 0.00 0.00 65 1015.4
20260905191017 88 135 2.6 5.2 0.00 0.00 0.00 65 1015.5
20260905190037 88 158 2.6 6.1 0.00 0.00 0.00 65 1015.5
20260905185037 89 0 0.9 1.7 0.00 0.00 0.00 64 1015.7
20260905184017 88 113 0.9 1.7 0.00 0.00 0.00 65 1015.7